Flag for Germany Weather past 2 weeks in Worms, Rhineland-Palatinate, Germany

Now
64 °F

Partly sunny.


Feels Like: 64 °F
Forecast: 56 / 70 °F
Wind: 16 mph from West

Location: Baden Wurttemberg - Neuostheim

Current Time: Jul 28, 2015 at 10:52:16 AM

Latest Report: Jul 28, 2015 at 10:20 AM


Visibility: N/A

Pressure: 29.83 "Hg

Humidity: 46%

Dew point: 43 °F

Location of WormsLocation

Historic Weather in Worms — Graph

°F

Worms temperature yesterday

Maximum temperature yesterday: 73 °F (at 4:50 PM)
Minimum temperature yesterday: 61 °F (at 5:50 AM)
Average temperature yesterday: 68 °F

Past Weeks' High & Low Weather Summary

 TemperatureHumidityPressure
High95 °F (Jul 17, 3:50 PM)100% (Jul 19, 2:50 PM)30.15 "Hg (Jul 19, 2:50 PM)
Low55 °F (Jul 26, 7:50 AM)19% (Jul 16, 7:50 PM)29.65 "Hg (Jul 24, 7:50 PM)
Average77 °F54%29.95 "Hg
* Reported Jul 13 9:20 AM — Jul 28 9:50 AM, Worms, Weather by CustomWeather, © 2015

Note: Actual official high and low records may vary slightly from our data, if they occured in-between our weather recording intervals... More about our weather records

Advertising

Worms weather history for previous 24 hours

 ConditionsComfort  
Time TempWeatherWind HumidityBarometerVisibility
9:50 AM
Tue, Jul 28
66 °FScattered clouds.14 mph46%29.83 "HgN/A
9:20 AM64 °FBroken clouds.12 mph52%29.83 "HgN/A
8:50 AM64 °FBroken clouds.16 mph56%29.80 "HgN/A
8:20 AM63 °FPartly sunny.8 mph68%29.80 "HgN/A
7:50 AM63 °FPartly sunny.10 mph68%29.80 "HgN/A
7:20 AM63 °FBroken clouds.8 mph73%29.80 "HgN/A
6:50 AM63 °FPartly cloudy.9 mph73%29.80 "HgN/A
6:20 AM63 °FPassing clouds.10 mph68%29.77 "HgN/A
5:50 AM63 °FScattered showers. Partly cloudy.14 mph68%29.77 "HgN/A
8:50 PM
Mon, Jul 27
72 °FPassing clouds.13 mph47%29.74 "HgN/A
8:20 PM72 °FPassing clouds.13 mph47%29.74 "HgN/A
7:50 PM73 °FPassing clouds.16 mph44%29.74 "HgN/A
7:20 PM73 °FPassing clouds.17 mph44%29.74 "HgN/A
6:50 PM73 °FPassing clouds.16 mph44%29.74 "HgN/A
6:20 PM72 °FPassing clouds.15 mph47%29.74 "HgN/A
5:50 PM73 °FPassing clouds.17 mph44%29.74 "HgN/A
5:20 PM73 °FSunny.21 mph44%29.74 "Hg10 mi
4:50 PM73 °FPassing clouds.15 mph44%29.71 "HgN/A
4:20 PM72 °FBroken clouds.14 mph47%29.71 "HgN/A
3:50 PM72 °FPassing clouds.12 mph50%29.71 "HgN/A
3:20 PM72 °FBroken clouds.13 mph50%29.71 "HgN/A
2:50 PM70 °FPartly sunny.13 mph50%29.71 "HgN/A
2:20 PM72 °FBroken clouds.14 mph50%29.71 "HgN/A
1:50 PM72 °FScattered clouds.15 mph53%29.71 "HgN/A
1:20 PM70 °FBroken clouds.14 mph57%29.71 "HgN/A
12:50 PM66 °FBroken clouds.14 mph64%29.71 "HgN/A
12:20 PM68 °FScattered showers. Broken clouds.16 mph60%29.71 "HgN/A
11:50 AM66 °FScattered showers. Broken clouds.17 mph64%29.71 "HgN/A
11:20 AM64 °FScattered clouds.15 mph73%29.71 "HgN/A
10:50 AM64 °FScattered showers. Partly sunny.14 mph83%29.71 "HgN/A
10:20 AM66 °FScattered showers. Partly sunny.12 mph73%29.68 "HgN/A
Weather by CustomWeather, © 2015

See weather overviewHow to use our weather pages